Погода в Вюрцбурге

Германия     49°47′42″N   9°56′08″E
темп.,
°C
ветер,
м/с
пор.,
м/с
влажн.,
%
обл.,
%
осадки,
мм/ч
давл.,
гПа
погр.,
м
4 марта, чт
чт401:00+7юз237981 0.0 102555
04:00+6зюз228196 0.0 102328
07:00+5юз238788 0.0 102162
10:00+9зюз467536 0.0 1020361
13:00+13з686847 0.4 10181200
16:00+10зюз5976100 0.3 1017865
19:00+8з498678 0.5 1016404
22:00+7ссз4888100 2.6 1018581
5 марта, пт
пт501:00+4с4786100 2.7 1019413
04:00+4ссз2586100 0.1 1020522
07:00+2ссв5880100 0.2 1022719
10:00+2ссв687391 0.0 1025902
13:00+4св566087 0.1 10271245
16:00+4св575144 0.0 10271437
19:00+1св486935 0.0 1030240
22:00−1всв37700 0.0 1032191
6 марта, сб
сб601:00−1всв35710 0.0 1033140
04:00−1всв25700 0.0 1033141
07:00−2всв24690 0.0 1034111
10:00+3в46460 0.0 1034849
13:00+5в45350 0.0 10321240
16:00+6всв343523 0.0 10301186
19:00+1ссв225058 0.0 103022
22:00−1св125354 0.0 103021
7 марта, вс
вс701:00−1всв115477 0.0 102922
04:00−2всв115645 0.0 102721
07:00−2св015622 0.0 102721
10:00+3св11420 0.0 1026329
13:00+6с11350 0.0 1024812
16:00+6сз12350 0.0 1022957
19:00+1з22540 0.0 102322
22:000ссз116119 0.0 102521
8 марта, пн
пн801:00−1с127019 0.0 102521
04:00−2с12780 0.0 102421
07:00−2с11820 0.0 102521
10:00+2ссв23650 0.0 1025528
13:00+5св335922 0.0 10251031
16:00+6ссв346075 0.0 10241089
19:00+1ссв227747 0.0 102522
22:000св23900 0.0 102660